This is the latest recevied weather packets stored in our database for station/object KD4EED. If no packets are shown the sender has not sent any weather packets the latest 10 day(s).
| Time | Temp. | Humidity | Pressure | Rain* | Wind** | Luminosity | Snow |
|---|---|---|---|---|---|---|---|
| 1777848540 | 20° C | 56% | 1010.7 hPa | - | - | 352 W/m² | - |
| 1777848237 | 20° C | 55% | 1010.8 hPa | - | - | 281 W/m² | - |
| 1777847935 | 20° C | 55% | 1011 hPa | - | - | 334 W/m² | - |
| 1777847633 | 20° C | 55% | 1010.9 hPa | - | - | 560 W/m² | - |
| 1777847328 | 20° C | 57% | 1010.9 hPa | - | - | 555 W/m² | - |
| 1777847027 | 20° C | 58% | 1011.1 hPa | - | - | 331 W/m² | - |
| 1777846724 | 20° C | 55% | 1011.2 hPa | - | - | 434 W/m² | - |
| 1777846423 | 20° C | 56% | 1011.3 hPa | - | - | 409 W/m² | - |
| 1777846118 | 20° C | 56% | 1011.1 hPa | - | - | 521 W/m² | - |
| 1777845815 | 20° C | 56% | 1011.3 hPa | - | - | 332 W/m² | - |
| 1777845512 | 20° C | 56% | 1011.4 hPa | - | - | 340 W/m² | - |
| 1777845209 | 20° C | 55% | 1011.3 hPa | - | - | 560 W/m² | - |
| 1777844907 | 20° C | 54% | 1011.4 hPa | - | - | 351 W/m² | - |
| 1777844604 | 20° C | 54% | 1011.1 hPa | - | - | 356 W/m² | - |
| 1777844301 | 20° C | 53% | 1011.4 hPa | - | - | 385 W/m² | - |
| 1777843999 | 20° C | 55% | 1011.4 hPa | - | - | 324 W/m² | - |
| 1777843696 | 20° C | 54% | 1011.5 hPa | - | - | 357 W/m² | - |
| 1777843394 | 20.56° C | 52% | 1011.4 hPa | - | - | 358 W/m² | - |
| 1777843091 | 20.56° C | 54% | 1011.4 hPa | - | - | 462 W/m² | - |
| 1777842788 | 20.56° C | 51% | 1011.6 hPa | - | - | 411 W/m² | - |
| 1777842487 | 20° C | 54% | 1011.5 hPa | - | - | 380 W/m² | - |
| 1777842185 | 20.56° C | 52% | 1011.6 hPa | - | - | 357 W/m² | - |
| 1777841880 | 20° C | 54% | 1011.3 hPa | - | - | 346 W/m² | - |
| 1777841577 | 20° C | 53% | 1011.5 hPa | - | - | 366 W/m² | - |
| 1777841273 | 20° C | 53% | 1011.4 hPa | - | - | 382 W/m² | - |
* Rain since midnight (hover to see other rain measurements)
** Current wind speed in m/s (hover to see current wind gust speed)